Regional Weather Roundup
Issued by NWS

Home | Current Version | Previous Version | Text Only | Print | Product List | Glossary On
Versions: 1 2 3 4 5 6 7 8 9 10 11 12 13 14 15 16 17 18 19 20 21 22 23 24 25 26 27 28 29 30 31 32 33 34 35 36 37 38 39 40 41 42 43 44 45 46 47 48 49 50
000
ASUS43 KMPX 250001
RWRMN
WEATHER ROUNDUP FOR MINNESOTA
NATIONAL WEATHER SERVICE TWIN CITIES/CHANHASSEN MN
700 PM CDT SUN MAY 24 2015


NOTE: "FAIR" INDICATES FEW OR NO CLOUDS BELOW 12,000 FEET WITH NO
SIGNIFICANT WEATHER AND/OR OBSTRUCTIONS TO VISIBILITY. N/A MEANS
CURRENT SKY AND/OR WEATHER CONDITIONS ARE NOT AVAILABLE.

MNZ060>063-068>070-250100-
   Twin Cities Metro

CITY           SKY/WX    TMP DP  RH WIND       PRES   REMARKS
TWIN CITIES    LGT RAIN  60  58  92 E12       29.87F FOG
6HR MIN TEMP:  60; 6HR MAX TEMP:  63; 6HR PCP:  0.21;

ST PAUL        LGT RAIN  59  58  96 E8        29.88F FOG
CRYSTAL        LGT RAIN  60  58  92 E6        29.87F FOG
BLAINE         LGT RAIN  61  61 100 E9        29.88F FOG
LAKEVILLE      DRIZZLE   57  57 100 E12       29.86F
EDEN PRAIRIE   LGT RAIN  59  57  93 E13       29.85F FOG
6HR MIN TEMP:  59; 6HR MAX TEMP:  63; 6HR PCP:  0.19;

SOUTH ST PAUL  DRIZZLE   59  58  96 E7        29.87F
LAKE ELMO      DRIZZLE   59  59 100 E9        29.89F
$$
MNZ001>005-007-008-013>017-022>024-027-028-250100-
   Northwest Minnesota

CITY           SKY/WX    TMP DP  RH WIND       PRES   REMARKS
BEMIDJI        CLOUDY    69  49  49 E5        29.93F
HALLOCK        CLOUDY    77  36  22 CALM      29.90F
ROSEAU         CLOUDY    77  46  33 CALM      29.92F
WARROAD        CLOUDY    73  52  46 NE3       29.93F
THIEF RVR FALL CLOUDY    72  48  43 SE9       29.92F
CROOKSTON      CLOUDY    73  48  40 SE8       29.91F
FOSSTON        CLOUDY    66  46  48 E5        29.94F
DETROIT LAKES  CLOUDY    68  50  52 E5        29.92F
MOORHEAD       CLOUDY    70  52  52 SE3       29.91F
PARK RAPIDS    CLOUDY    68  48  48 SE7       29.93F
MAHNOMEN       CLOUDY    69  50  50 E5        29.92F
$$
MNZ006-009>011-018-025>026-250100-
   North Central Minnesota

CITY           SKY/WX    TMP DP  RH WIND       PRES   REMARKS
BAUDETTE       CLOUDY    73  48  41 N3        29.92F
FLAG ISLAND    CLOUDY    64  52  63 S7        29.91F
INTL FALLS     CLOUDY    74  43  32 NE3       29.92F
6HR MIN TEMP:  74; 6HR MAX TEMP:  79;

WASKISH        CLOUDY    68  55  64 CALM      29.94S
BIG FORK       CLOUDY    70  48  46 S5        29.95S
LONGVILLE      CLOUDY    66  48  52 SE3       29.94F
GRAND RAPIDS   CLOUDY    64  48  55 CALM      29.95F
CRANE LAKE     CLOUDY    73  37  27 CALM      29.94F
COOK           CLOUDY    70  48  46 S7        29.95F
WALKER         MOCLDY    67  49  52 CALM      29.94F
$$
MNZ012-019>021-037-250100-
   Northeast Minnesota

CITY           SKY/WX    TMP DP  RH WIND       PRES   REMARKS
DULUTH         CLOUDY    66  46  48 S6        29.95F
6HR MIN TEMP:  65; 6HR MAX TEMP:  71;

ELY            CLOUDY    72  43  35 SW7       29.94F
HIBBING        CLOUDY    67  47  48 SW3       29.95F
EVELETH        CLOUDY    68  52  56 CALM      29.96F
DULUTH HARBOR  CLOUDY    66  55  68 S12       29.95F
TWO HARBORS    CLOUDY    64  48  55 CALM      29.94R
GRAND MARAIS     N/A     53  41  63 CALM      29.93F
G MARAIS ARPRT CLOUDY    64  37  36 CALM      29.98F
$$
MNZ029>031-032-039>041-046>048-054>057-064-250100-
   West Central Minnesota

CITY           SKY/WX    TMP DP  RH WIND       PRES   REMARKS
FERGUS FALLS   CLOUDY    64  54  68 E8G16     29.90F
WHEATON        RAIN      57  55  94 NE6       29.90F
MORRIS         LGT RAIN  61  57  88 E12G20    29.87F
ALEXANDRIA     CLOUDY    59  56  89 E14       29.90F
ELBOW LAKE     RAIN      59  57  94 NE9       29.89F
WADENA         LGT RAIN  61  54  77 E6        29.92F
GLENWOOD       CLOUDY    59  57  94 E15       29.89
APPLETON       DRIZZLE   61  57  88 E7        29.85F
BENSON         DRIZZLE   61  55  82 SE7       29.87S
ORTONVILLE     RAIN      59  55  88 NE6       29.86F
WILLMAR        LGT RAIN  61  57  88 E13       29.88S
$$
MNZ033>034-036-042>043-049>051-058-059-250100-
   Central Minnesota

CITY           SKY/WX    TMP DP  RH WIND       PRES   REMARKS
ST CLOUD       LGT RAIN  59  57  93 E8        29.89F FOG
6HR MIN TEMP:  59; 6HR MAX TEMP:  63; 6HR PCP:  0.24;

SAUK CENTRE    LGT RAIN  58  56  93 E12G18    29.89F
PAYNESVILLE    LGT RAIN  56  55  99 NE9       29.88F
AITKIN         CLOUDY    64  52  63 E5        29.93F
PINE RIVER     DRIZZLE   64  52  63 SE5       29.97F
BRAINERD       LGT RAIN  60  55  83 E5        29.94F
STAPLES        DRIZZLE   61  54  77 E3        29.93F
LONG PRAIRIE   DRIZZLE   57  55  94 NE10      29.91F
LITTLE FALLS   RAIN      59  54  82 E5        29.91F
LITCHFIELD     DRIZZLE   59  59 100 E12       29.87F
BUFFALO        RAIN      59  56  91 NE9       29.88F
MAPLE LAKE     DRIZZLE   60  58  95 E12G17    29.89F
$$
MNZ037-044-045-052-053-250100-
   East Central Minnesota

CITY           SKY/WX    TMP DP  RH WIND       PRES   REMARKS
PRINCETON      RAIN      61  57  88 NE7       29.90F
MORA           RAIN      55  52  88 E6        29.94F
CAMBRIDGE      RAIN      61  54  77 NE6       29.88F
RUSH CITY      CLOUDY    60  57  92 NE8       29.91F
MOOSE LAKE     LGT RAIN  61  55  82 SE3       29.94F
HINCKLEY       DRIZZLE   59  59 100 NE6       29.93F
CLOQUET        CLOUDY    64  52  63 S6        29.96S
MCGREGOR       CLOUDY    63  52  67 SE6       29.95F
$$
MNZ071>073-080-081-089-090-097-098-250100-
   Southwest Minnesota

CITY           SKY/WX    TMP DP  RH WIND       PRES   REMARKS
MONTEVIDEO     DRIZZLE   61  61 100 E13       29.86F
GRANITE FALLS  DRIZZLE   59  57  94 NE14      29.85F
CANBY          LGT RAIN  59  58  95 E14       29.85F
MARSHALL       CLOUDY    59  54  82 E10       29.82F
REDWOOD FALLS  RAIN      60  58  92 E12G20    29.82F FOG
OLIVIA         RAIN      57  54  88 E10       29.84F
WINDOM         DRIZZLE   61  57  88 NE8       29.80F
WORTHINGTON    CLOUDY    59  57  94 NE8       29.80F
JACKSON        CLOUDY    61  61 100 NE7       29.80F FOG
TRACY          DRIZZLE   60  59  97 E10       29.82F
SLAYTON        DRIZZLE   58  58 100 NE12      29.82F
$$
MNZ065>067-074>077-082>085-091>093-250100-
   South Central Minnesota

CITY           SKY/WX    TMP DP  RH WIND       PRES   REMARKS
MANKATO        CLOUDY    59  57  94 E12       29.82F
NEW ULM        DRIZZLE   59  59 100 E12       29.82F
ST JAMES       DRIZZLE   61  61 100 NE10      29.81F
FAIRMONT       CLOUDY    61  55  82 E8        29.79F
GLENCOE        DRIZZLE   60  59  98 E8        29.84F
FARIBAULT      DRIZZLE   59  57  94 NE7       29.85F
OWATONNA       DRIZZLE   59  57  94 E8        29.83F
WASECA         RAIN      59  57  94 E12       29.83F
ALBERT LEA     DRIZZLE   61  61 100 SE7       29.81F
$$
MNZ078>079-086>088-094>096-250100-
   Southeast Minnesota

CITY           SKY/WX    TMP DP  RH WIND       PRES   REMARKS
ROCHESTER      LGT RAIN  59  57  93 E12       29.86F FOG
6HR MIN TEMP:  58; 6HR MAX TEMP:  59; 6HR PCP:  0.30;

RED WING       RAIN      59  57  94 E10       29.86F
STANTON        LGT RAIN  60  57  91 E8        29.84F
DODGE CENTER   DRIZZLE   59  57  94 E9        29.84F
WINONA         RAIN      59  57  94 SE8       29.88F
AUSTIN         DRIZZLE   61  57  88 E12       29.82F
PRESTON        CLOUDY    58  57  96 SE6       29.86F FOG
$$
ABBREVIATIONS USED IN REMARKS
   TC - TEMPERATURES IN CELSIUS
  WCI - WIND CHILL INDEX
   HX - HEAT INDEX
  VSB - VISIBILITY
$$



USA.gov is the U.S. government's official web portal to all federal, state and local government web resources and services.